When you browse on this site, cookies collect data to enhance your experience and personalize the content and advertising you see.
Visit our Privacy Policy to learn more. By continuing to use the site, you agree to this use of cookies and data.
  • In Czech Republic
  • List of Countries
  • For 7 days
  • Water Temperature
  • Satellite Maps
  • Weather Map
  • Weather Widgets
  • user-avatar
    Login

    Hourly Weather Ganja

    Today, 19 November, Monday

    Time Temperature Precipitation Wind Pressure Humidity
    00:00 +8°C° 0 mm 1 mps 730 mmHg 66%
    01:00 +8°C° 0 mm 1 mps 730 mmHg 66%
    02:00 +7°C° 0 mm 1 mps 730 mmHg 67%
    03:00 +7°C° 0 mm 1 mps 729 mmHg 64%
    04:00 +7°C° 0 mm 1 mps 730 mmHg 65%
    05:00 +7°C° 0 mm 1 mps 730 mmHg 65%
    06:00 +5°C° 0 mm 0 mps 730 mmHg 66%
    07:00 +8°C° 0 mm 1 mps 730 mmHg 61%
    08:00 +9°C° 0 mm 1 mps 730 mmHg 57%
    09:00 +10°C° 0 mm 1 mps 730 mmHg 53%
    10:00 +11°C° 0 mm 1 mps 730 mmHg 51%
    11:00 +11°C° 0 mm 1 mps 730 mmHg 49%
    12:00 +12°C° 0 mm 2 mps 730 mmHg 47%
    13:00 +12°C° 0 mm 2 mps 730 mmHg 47%
    14:00 +12°C° 0 mm 2 mps 730 mmHg 47%
    15:00 +12°C° 0 mm 2 mps 730 mmHg 49%
    16:00 +10°C° 0 mm 2 mps 730 mmHg 53%
    17:00 +9°C° 0 mm 2 mps 730 mmHg 58%
    18:00 +8°C° 0 mm 2 mps 731 mmHg 62%
    19:00 +9°C° 0 mm 1 mps 731 mmHg 64%
    20:00 +8°C° 0 mm 1 mps 731 mmHg 66%
    21:00 +8°C° 0 mm 1 mps 731 mmHg 68%
    22:00 +8°C° 0 mm 1 mps 730 mmHg 70%
    23:00 +7°C° 0 mm 1 mps 730 mmHg 71%

    Tomorrow, 20 November, Tuesday

    Time Temperature Precipitation Wind Pressure Humidity
    00:00 +6°C° 0 mm 0 mps 730 mmHg 73%
    01:00 +7°C° 0 mm 1 mps 730 mmHg 73%
    02:00 +7°C° 0 mm 1 mps 730 mmHg 73%
    03:00 +7°C° 0 mm 1 mps 729 mmHg 72%
    04:00 +7°C° 0 mm 1 mps 729 mmHg 71%
    05:00 +6°C° 0 mm 2 mps 729 mmHg 70%
    06:00 +6°C° 0 mm 2 mps 729 mmHg 68%
    07:00 +7°C° 0 mm 2 mps 728 mmHg 63%
    08:00 +8°C° 0 mm 2 mps 728 mmHg 57%
    09:00 +10°C° 0 mm 2 mps 728 mmHg 51%
    10:00 +12°C° 0 mm 2 mps 727 mmHg 48%
    11:00 +13°C° 0 mm 2 mps 727 mmHg 44%
    12:00 +13°C° 0 mm 3 mps 726 mmHg 40%
    13:00 +14°C° 0 mm 3 mps 726 mmHg 40%
    14:00 +14°C° 0 mm 3 mps 725 mmHg 41%
    15:00 +14°C° 0 mm 3 mps 725 mmHg 41%
    16:00 +13°C° 0 mm 3 mps 725 mmHg 44%
    17:00 +12°C° 0 mm 3 mps 725 mmHg 47%
    18:00 +11°C° 0 mm 3 mps 725 mmHg 50%
    19:00 +11°C° 0 mm 3 mps 725 mmHg 50%
    20:00 +11°C° 0 mm 3 mps 725 mmHg 50%
    21:00 +11°C° 0 mm 3 mps 725 mmHg 50%
    22:00 +10°C° 0 mm 3 mps 725 mmHg 52%
    23:00 +10°C° 0 mm 3 mps 725 mmHg 53%

    Day after tomorrow, 21 November, Wednesday

    Time Temperature Precipitation Wind Pressure Humidity
    00:00 +10°C° 0 mm 3 mps 724 mmHg 54%
    01:00 +10°C° 0 mm 3 mps 724 mmHg 55%
    02:00 +10°C° 0 mm 3 mps 724 mmHg 57%
    03:00 +10°C° 0 mm 3 mps 724 mmHg 58%
    04:00 +9°C° 0 mm 3 mps 724 mmHg 59%
    05:00 +9°C° 0 mm 3 mps 724 mmHg 61%
    06:00 +9°C° 0 mm 3 mps 724 mmHg 62%
    07:00 +10°C° 0 mm 3 mps 724 mmHg 58%
    08:00 +11°C° 0 mm 3 mps 724 mmHg 54%
    09:00 +13°C° 0 mm 3 mps 724 mmHg 51%
    10:00 +14°C° 0 mm 3 mps 724 mmHg 48%
    11:00 +14°C° 0 mm 3 mps 724 mmHg 46%
    12:00 +16°C° 0 mm 2 mps 723 mmHg 44%
    13:00 +16°C° 0 mm 2 mps 723 mmHg 45%
    14:00 +16°C° 0 mm 2 mps 723 mmHg 46%
    15:00 +16°C° 0 mm 1 mps 723 mmHg 47%
    16:00 +15°C° 0 mm 2 mps 723 mmHg 51%
    17:00 +14°C° 0 mm 2 mps 723 mmHg 55%
    18:00 +13°C° 0 mm 2 mps 723 mmHg 58%
    19:00 +11°C° 0.1 mm 3 mps 723 mmHg 62%
    20:00 +11°C° 0.1 mm 3 mps 723 mmHg 66%
    21:00 +10°C° 0.1 mm 4 mps 724 mmHg 69%
    22:00 +10°C° 0 mm 4 mps 723 mmHg 74%
    23:00 +9°C° 0 mm 3 mps 723 mmHg 79%

    22 November, Thursday

    Time Temperature Precipitation Wind Pressure Humidity
    00:00 +9°C° 0 mm 3 mps 723 mmHg 83%
    01:00 +9°C° 0.1 mm 3 mps 723 mmHg 84%
    02:00 +9°C° 0.1 mm 2 mps 723 mmHg 85%
    03:00 +8°C° 0.1 mm 2 mps 723 mmHg 86%
    04:00 +9°C° 0 mm 1 mps 723 mmHg 86%
    05:00 +9°C° 0 mm 1 mps 723 mmHg 86%
    06:00 +9°C° 0 mm 1 mps 723 mmHg 86%
    07:00 +9°C° 0 mm 1 mps 724 mmHg 84%
    08:00 +10°C° 0 mm 1 mps 724 mmHg 81%
    09:00 +10°C° 0 mm 1 mps 724 mmHg 79%
    10:00 +11°C° 0 mm 1 mps 724 mmHg 76%
    11:00 +11°C° 0 mm 1 mps 723 mmHg 74%
    12:00 +12°C° 0 mm 2 mps 723 mmHg 71%
    13:00 +12°C° 0 mm 1 mps 723 mmHg 70%
    14:00 +12°C° 0 mm 1 mps 723 mmHg 70%
    15:00 +12°C° 0 mm 1 mps 723 mmHg 69%
    16:00 +11°C° 0 mm 1 mps 723 mmHg 73%
    17:00 +11°C° 0 mm 1 mps 723 mmHg 76%
    18:00 +10°C° 0 mm 1 mps 723 mmHg 79%
    19:00 +10°C° 0 mm 1 mps 724 mmHg 81%
    20:00 +10°C° 0 mm 1 mps 724 mmHg 83%
    21:00 +9°C° 0 mm 1 mps 724 mmHg 85%
    22:00 +8°C° 0 mm 0 mps 724 mmHg 86%
    23:00 +8°C° 0 mm 0 mps 724 mmHg 87%

    23 November, Friday

    Time Temperature Precipitation Wind Pressure Humidity
    00:00 +8°C° 0 mm 0 mps 724 mmHg 88%
    01:00 +9°C° 0 mm 1 mps 724 mmHg 88%
    02:00 +9°C° 0 mm 1 mps 723 mmHg 88%
    03:00 +9°C° 0 mm 1 mps 723 mmHg 88%
    04:00 +8°C° 0.1 mm 1 mps 723 mmHg 87%
    05:00 +8°C° 0.1 mm 1 mps 723 mmHg 86%
    06:00 +8°C° 0.1 mm 1 mps 723 mmHg 86%
    07:00 +9°C° 0 mm 1 mps 724 mmHg 81%
    08:00 +9°C° 0 mm 2 mps 724 mmHg 76%
    09:00 +10°C° 0 mm 2 mps 724 mmHg 71%
    10:00 +12°C° 0 mm 2 mps 724 mmHg 68%
    11:00 +12°C° 0 mm 2 mps 724 mmHg 64%
    12:00 +13°C° 0 mm 2 mps 723 mmHg 60%
    13:00 +13°C° 0 mm 2 mps 724 mmHg 60%
    14:00 +13°C° 0 mm 2 mps 724 mmHg 60%
    15:00 +13°C° 0 mm 2 mps 724 mmHg 60%
    16:00 +13°C° 0.1 mm 2 mps 724 mmHg 64%
    17:00 +12°C° 0.1 mm 1 mps 725 mmHg 67%
    18:00 +12°C° 0.1 mm 1 mps 726 mmHg 71%
    19:00 +11°C° 0.2 mm 1 mps 726 mmHg 72%
    20:00 +11°C° 0.2 mm 1 mps 727 mmHg 73%
    21:00 +10°C° 0.2 mm 2 mps 728 mmHg 74%
    22:00 +9°C° 0.3 mm 2 mps 729 mmHg 76%
    23:00 +9°C° 0.3 mm 2 mps 729 mmHg 79%

    24 November, Saturday

    Time Temperature Precipitation Wind Pressure Humidity
    00:00 +9°C° 0.3 mm 3 mps 730 mmHg 82%
    01:00 +8°C° 0.1 mm 3 mps 730 mmHg 84%
    02:00 +8°C° 0.1 mm 3 mps 730 mmHg 86%
    03:00 +8°C° 0.1 mm 3 mps 731 mmHg 88%
    04:00 +7°C° 0 mm 3 mps 731 mmHg 87%
    05:00 +6°C° 0 mm 4 mps 732 mmHg 87%
    06:00 +6°C° 0 mm 4 mps 733 mmHg 86%
    07:00 +6°C° 0.1 mm 5 mps 733 mmHg 84%
    08:00 +6°C° 0.1 mm 5 mps 734 mmHg 81%
    09:00 +5°C° 0.1 mm 6 mps 735 mmHg 79%
    10:00 +5°C° 0 mm 6 mps 735 mmHg 77%
    11:00 +5°C° 0 mm 6 mps 735 mmHg 75%
    12:00 +5°C° 0 mm 7 mps 735 mmHg 74%
    13:00 +5°C° 0 mm 6 mps 735 mmHg 74%
    14:00 +5°C° 0 mm 6 mps 735 mmHg 74%
    15:00 +6°C° 0 mm 5 mps 735 mmHg 75%
    16:00 +5°C° 0 mm 4 mps 735 mmHg 78%
    17:00 +4°C° 0 mm 4 mps 735 mmHg 81%
    18:00 +4°C° 0 mm 3 mps 736 mmHg 84%
    19:00 +5°C° 0 mm 2 mps 735 mmHg 85%
    20:00 +5°C° 0 mm 2 mps 735 mmHg 86%
    21:00 +5°C° 0 mm 1 mps 735 mmHg 87%
    22:00 +5°C° 0 mm 1 mps 735 mmHg 87%
    23:00 +5°C° 0 mm 1 mps 734 mmHg 88%
    Show more